Location: Vancouver
(49.2500°N, 123.1330°W)
Time: 18:02:18
(UTC-07:00)

S-56A Canister/Altair - Visible Passes

Search period start: 27 August 2014 00:00
Search period end: 06 September 2014 00:00
Orbit: 632 x 2504 km, 38.9° (Epoch: 22 August)

Date Brightness Start Highest point End Pass type
(mag) Time Alt. Az. Time Alt. Az. Time Alt. Az.
27 Aug 11.2 20:52:48 10° W 21:04:29 29° SW 21:15:34 10° SSE visible
28 Aug 11.2 20:19:44 10° W 20:31:45 32° SW 20:43:30 10° SSE visible
28 Aug 11.6 22:32:47 10° WSW 22:34:55 10° SW 22:37:01 10° SW visible
29 Aug 11.5 21:56:57 10° WSW 22:02:27 13° SW 22:07:49 10° SSW visible
30 Aug 11.5 21:22:41 10° W 21:29:56 15° SW 21:37:03 10° SSW visible
31 Aug 11.5 20:48:58 10° W 20:57:21 18° SW 21:05:45 10° SSW visible
01 Sep 11.5 20:15:34 10° W 20:24:44 20° SW 20:34:07 10° S visible
